SL-14 DEB *, 47086

Orbit data source: Space-Track

SL-14 DEB *, 47086 is space debris in LEO originally from a launch on Thu, 15 Aug 1991 UTC launched from the Plesetsk Missile And Space Complex (PKMTR). Debris objects in space refer to the collection of defunct objects orbiting the Earth. Examples of debris include non-operational satellites, rocket bodies, and fragments generated from explosions, collisions, or faulty payload assembly.

Loading next visibility...
Identifier
47086, 1991-056DL
Orbit
LEO
Country
Flag of CISCIS
Related business
Manufacturer
Unknown
Mission
Spacecraft
Bus & Motor
Unknown
Mass
Unknown
Launch date (UTC)
1991-08-15 (35 years ago)
Launch vehicle
Unknown
Launch site
Plesetsk Missile And Space Complex (PKMTR)
Object type
Payload
Rocket body
Debris
Shape & HBR
Unknown shape, 0.1 m
Radar Cross Section
Small (<0.1 m²)

Expand to show TLE details & history
Last TLE update: 3 weeks ago

TLE from 3 weeks ago
0 SL-14 DEB *
1 47086U 91056DL  26140.59384723  .00004461  00000-0  19806-2 0  9991
2 47086  82.5506 260.4495 0013493 105.6051 254.6621 14.22788519286213
Epoch: 2026-05-20T14:15Z
TLE epoch observation values (Epoch: 2026-05-20T14:15:08.400Z)
Latitude
-0.00003°
Longitude
168.41333°
Altitude
821.474 km
Speed
7.441 km/s
True Right ascension
17h 21m 47s
True Declination
0° 00' 00"
Sunlit
Object was in full shadow at epoch
Visualization orbit readout
Latitude
Unknown
Longitude
Unknown
Altitude
Unknown
Speed
Unknown
Apparent Right ascension
Unknown
Apparent Declination
Unknown
Sunlit
N/A
Visualization observer readout
Local Sidereal Time
18:32:28
Azimuth
Unknown
Elevation
Unknown
Doppler factor
Unknown
Orbital elements
Apogee altitude
822.739 km
Perigee altitude
803.333 km
Semi-major axis
7,191.173 km
Eccentricity
0.00135
Inclination
82.5506°
RAAN
260.4495°
Arg. of periapsis
105.6051°
True anomaly
254.51306°
Mean anomaly
254.6621°
Eccentric anomaly
254.58757°
Mean motion
3.55913 °/min
Orbital period
101.15 mins
BSTAR
0.0019806
Loading maneuver chart data...
Computing Atmospheric mass density...
Loading historical data...
Loading historical data...
Loading historical data...
Loading historical data...
Loading historical data...
Loading historical data...
Loading historical data...

Documentation

Showing up to 5 results
|